Погода в Шараголе

Россия / Республика Бурятия     50°01′04″N   107°20′46″E
темп.,
°C
ветер,
м/с
пор.,
м/с
влажн.,
%
обл.,
%
осадки,
мм/ч
давл.,
гПа
погр.,
м
17 июня, чт
чт1723:00+6зсз4892100 0.4 1011528
02:00+4зсз369532 0.6 1013234
05:00+4з2295100 0.0 101481
08:00+6юз2291100 0.1 1014158
11:00+11ссз1582100 0.0 1012594
14:00+16сз7116230 0.3 10101589
17:00+17сз7116320 1.1 10091717
20:00+14сз612694 1.4 1010394
18 июня, пт
пт1823:00+9з22855 0.0 101117
02:00+7юз22865 0.0 101019
05:00+6юз22875 0.0 101018
08:00+13зсз266524 0.0 1008499
11:00+18сз8114661 0.0 10062486
14:00+18сз7114530 0.0 10051792
17:00+20ссз71245100 0.0 10042895
20:00+16зсз226057 0.0 100414
19 июня, сб
сб1923:00+11зюз22695 0.0 100512
02:00+9юз127088 0.0 100612
05:00+8ю12720 0.0 100610
08:00+15ю125925 0.0 1005233
11:00+19ссз3445100 0.0 10042012
14:00+19ссв2348100 0.0 10041050
17:00+21ссз24465 0.0 10021217
20:00+18юз22605 0.0 100211
20 июня, вс
вс2023:00+13ю11705 0.0 100311
02:00+10вюв22805 0.0 100413
05:00+9юв228663 0.0 100513
08:00+15вюв227027 0.1 1004237
11:00+20вюв23545 0.0 1003665
14:00+24вюв11415 0.0 10021040
17:00+24ссв224357 0.0 10011100
20:00+21ссв1161100 0.0 100211
21 июня, пн
пн2123:00+16ссз0171100 0.0 100311
02:00+14ююв117398 0.1 100412
05:00+12в1186100 0.2 100612
08:00+15юв2281100 0.4 1008200
11:00+17ююв2275100 0.1 1008402
14:00+19ююв227478 0.3 1007480
17:00+22юв335968 0.0 1006869
20:00+19юв1177100 0.0 100712